Location: Banios
(43.0451°N, 0.2335°E)
Time: 12:39:57
(UTC+00:00)

A-11 Canister half - Pass Details

Date: 14 May 2021
Orbit: 1513 x 1686 km, 47.2° (Epoch: 14 June)

Event Time Altitude Azimuth Distance (km) Brightness Sun altitude
Rises 15:01:49 0° 244° (WSW) 4,678 12.3 44.0°
Reaches altitude 10° 15:04:51 10° 244° (WSW) 3,684 12.1 43.5°
Maximum altitude 15:14:08 89° 159° (SSE) 1,518 9.8 41.9°
Drops below altitude 10° 15:23:27 10° 68° (ENE) 3,693 10.6 40.2°
Sets 15:26:30 0° 69° (ENE) 4,689 11.1 39.7°
